Skip Page Navigation
NASA JPL Caltech
NASA Logo - Jet Propulsion Laboratory + View the NASA Portal
+ Center for Near-Earth Object Studies
JPL Home Earth Solar System Stars & Galaxies Technology
JPL Solar System Dynamics
BODIES ORBITS EPHEMERIDES TOOLS PHYSICAL DATA DISCOVERY FAQ SITE MAP
JPL Small-Body Database Browser
Search: [ help ]  
16418 Lortzing (1987 SD10)
Classification: Main-belt Asteroid          SPK-ID: 2016418
Ephemeris | Orbit Diagram | Orbital Elements | Mission Design | Physical Parameters | Discovery Circumstances ]

[ show orbit diagram ]
Orbital Elements at Epoch 2459000.5 (2020-May-31.0) TDB
Reference: JPL 35 (heliocentric ecliptic J2000)
 Element Value Uncertainty (1-sigma)   Units 
e .0554100368757715 3.3149e-08  
a 2.275633291723161 6.7976e-09 au
q 2.149540367113048 7.3972e-08 au
i 8.097693479878243 3.5459e-06 deg
node 164.0923153245745 2.0549e-05 deg
peri 338.2827591846275 3.48e-05 deg
M 54.86017042436116 2.798e-05 deg
tp 2458809.423843614707
(2019-Nov-21.92384361)
9.7428e-05 TDB
period 1253.868075265035
3.43
5.6182e-06
1.538e-08
d
yr
n .2871115447483623 1.2865e-09 deg/d
Q 2.401726216333275 7.1743e-09 au
  Orbit Determination Parameters
   # obs. used (total)      2258  
   data-arc span      24356 days (66.68 yr)  
   first obs. used      1953-10-10  
   last obs. used      2020-06-16  
   planetary ephem.      DE431  
   SB-pert. ephem.      SB431-N16  
   condition code      0  
   norm. resid. RMS      .45724  
   source      ORB  
   producer      Otto Matic  
   solution date      2020-Jun-23 17:58:38  

Additional Information
 Earth MOID = 1.16282 au 
 Jupiter MOID = 2.5856 au 
 T_jup = 3.594 
[ show covariance matrix ]

Ephemeris | Orbit Diagram | Orbital Elements | Mission Design | Physical Parameters | Discovery Circumstances ]

Physical Parameter Table
Parameter Symbol Value Units Sigma Reference Notes
absolute magnitude H 14.0   n/a MPO302166  
diameter diameter 4.742 km 0.074 urn:nasa:pds:neowise_diameters_albedos::2.0[mainbelt] (http://adsabs.harvard.edu/abs/2011ApJ...741...68M)  
geometric albedo albedo 0.126   0.012 urn:nasa:pds:neowise_diameters_albedos::2.0[mainbelt] (http://adsabs.harvard.edu/abs/2011ApJ...741...68M)  

16418 Lortzing           Discovered 1987 Sept. 29 by F. Borngen at Tautenburg.
Albert Lortzing (1801-1851), who was born and died in Berlin, was a singer, an actor and later a conductor in Leipzig, Vienna and Berlin. His romantic-comic operas (Zar und Zimmermann, Der Wildschütz, Undine, Der Waffenschmied) became very popular and are full of humor. He mainly wrote the libretti himself.
NOTE: some special characters may not display properly (any characters within {} are an attempt to place the proper accent above a character)
Reference: 20010309/MPCPages.arcLast Updated: 2009-05-11

Alternate Designations
 1987 SD10 = 1999 BU23 
Ephemeris | Orbit Diagram | Orbital Elements | Mission Design | Physical Parameters | Discovery Circumstances ]
ABOUT SSD CREDITS/AWARDS PRIVACY/COPYRIGHT GLOSSARY LINKS
FirstGov 2020-Oct-26 16:01 UT
(server date/time)  
NASA Home Page
Site Manager:   Ryan S. Park
Webmaster  Alan B. Chamberlin